Time,TemperatureF,DewpointF,PressureIn,WindDirection,WindDirectionDegrees,WindSpeedMPH,WindSpeedGustMPH,Humidity,HourlyPrecipIn,Conditions,Clouds,dailyrainin,SoftwareType,DateUTC
2013-05-31 00:00:00,65.6,59.3,30.13,SE,136,0.0,0.0,80,0.00,,SKC,0.00,VWS V14.01,2013-05-31 04:00:00,
2013-05-31 00:01:00,65.6,59.3,30.13,SE,136,0.0,0.0,80,0.00,,SKC,0.00,VWS V14.01,2013-05-31 04:01:00,
2013-05-31 00:06:00,65.6,59.3,30.13,SE,136,0.0,0.0,80,0.00,,SKC,0.00,VWS V14.01,2013-05-31 04:06:00,
2013-05-31 00:11:00,65.5,59.5,30.13,SE,136,0.0,0.0,81,0.00,,SKC,0.00,VWS V14.01,2013-05-31 04:11:00,
2013-05-31 00:16:00,65.3,59.3,30.12,SE,136,0.0,0.0,81,0.00,,SKC,0.00,VWS V14.01,2013-05-31 04:16:00,
2013-05-31 00:21:00,65.3,59.3,30.12,SE,136,0.0,0.0,81,0.00,,SKC,0.00,VWS V14.01,2013-05-31 04:21:00,
2013-05-31 00:26:00,65.2,59.6,30.12,SE,136,0.0,0.0,82,0.00,,SKC,0.00,VWS V14.01,2013-05-31 04:26:00,
2013-05-31 00:31:00,65.0,59.4,30.12,SE,136,0.0,0.0,82,0.00,,SKC,0.00,VWS V14.01,2013-05-31 04:31:00,
2013-05-31 00:36:00,64.5,59.2,30.12,SE,136,0.0,0.0,83,0.00,,SKC,0.00,VWS V14.01,2013-05-31 04:36:00,
2013-05-31 00:41:00,64.2,59.3,30.12,SE,136,0.0,0.0,84,0.00,,SKC,0.00,VWS V14.01,2013-05-31 04:41:00,
2013-05-31 00:46:00,64.0,59.4,30.13,SE,136,0.0,0.0,85,0.00,,SKC,0.00,VWS V14.01,2013-05-31 04:46:00,
2013-05-31 00:51:00,63.9,59.3,30.13,SE,136,0.0,0.0,85,0.00,,SKC,0.00,VWS V14.01,2013-05-31 04:51:00,
2013-05-31 00:56:00,63.7,59.1,30.13,SE,136,0.0,0.0,85,0.00,,SKC,0.00,VWS V14.01,2013-05-31 04:56:00,
2013-05-31 01:01:00,63.5,59.2,30.13,SE,136,0.0,0.0,86,0.00,,SKC,0.00,VWS V14.01,2013-05-31 05:01:00,
2013-05-31 01:06:00,63.4,58.8,30.13,SE,136,0.0,0.0,85,0.00,,SKC,0.00,VWS V14.01,2013-05-31 05:06:00,
2013-05-31 01:11:00,63.2,59.0,30.13,SE,136,0.0,0.0,86,0.00,,SKC,0.00,VWS V14.01,2013-05-31 05:11:00,
2013-05-31 01:16:00,63.2,59.0,30.13,SE,136,0.0,1.0,86,0.00,,SKC,0.00,VWS V14.01,2013-05-31 05:16:00,
2013-05-31 01:21:00,63.1,58.8,30.13,SE,136,0.0,0.0,86,0.00,,SKC,0.00,VWS V14.01,2013-05-31 05:21:00,
2013-05-31 01:26:00,62.9,59.0,30.13,SE,136,0.0,0.0,87,0.00,,SKC,0.00,VWS V14.01,2013-05-31 05:26:00,
2013-05-31 01:31:00,62.7,58.8,30.12,SE,136,0.0,0.0,87,0.00,,SKC,0.00,VWS V14.01,2013-05-31 05:31:00,
2013-05-31 01:36:00,62.7,58.8,30.12,SE,136,0.0,0.0,87,0.00,,SKC,0.00,VWS V14.01,2013-05-31 05:36:00,
2013-05-31 01:41:00,62.7,58.8,30.12,SE,136,0.0,0.0,87,0.00,,SKC,0.00,VWS V14.01,2013-05-31 05:41:00,
2013-05-31 01:46:00,62.6,58.7,30.12,SE,136,0.0,0.0,87,0.00,,SKC,0.00,VWS V14.01,2013-05-31 05:46:00,
2013-05-31 01:51:00,62.6,58.7,30.12,SE,136,0.0,0.0,87,0.00,,SKC,0.00,VWS V14.01,2013-05-31 05:51:00,
2013-05-31 01:56:00,62.6,58.7,30.12,SE,136,0.0,0.0,87,0.00,,SKC,0.00,VWS V14.01,2013-05-31 05:56:00,
2013-05-31 02:01:00,62.6,58.7,30.12,SE,136,0.0,0.0,87,0.00,,SKC,0.00,VWS V14.01,2013-05-31 06:01:00,
2013-05-31 02:06:00,62.7,58.8,30.12,SE,136,0.0,0.0,87,0.00,,SKC,0.00,VWS V14.01,2013-05-31 06:06:00,
2013-05-31 02:11:00,62.9,58.7,30.12,SE,136,0.0,0.0,86,0.00,,SKC,0.00,VWS V14.01,2013-05-31 06:11:00,
2013-05-31 02:16:00,63.1,58.8,30.12,SE,136,0.0,0.0,86,0.00,,SKC,0.00,VWS V14.01,2013-05-31 06:16:00,
2013-05-31 02:21:00,63.1,59.2,30.12,SE,136,0.0,0.0,87,0.00,,SKC,0.00,VWS V14.01,2013-05-31 06:21:00,
2013-05-31 02:26:00,63.1,59.2,30.12,SE,136,0.0,0.0,87,0.00,,SKC,0.00,VWS V14.01,2013-05-31 06:26:00,
2013-05-31 02:31:00,62.9,58.7,30.12,SE,136,0.0,0.0,86,0.00,,SKC,0.00,VWS V14.01,2013-05-31 06:31:00,
2013-05-31 02:36:00,62.6,58.7,30.12,SE,136,0.0,0.0,87,0.00,,SKC,0.00,VWS V14.01,2013-05-31 06:36:00,
2013-05-31 02:41:00,62.3,58.4,30.12,SE,136,0.0,0.0,87,0.00,,SKC,0.00,VWS V14.01,2013-05-31 06:41:00,
2013-05-31 02:46:00,62.1,58.5,30.12,SE,136,0.0,0.0,88,0.00,,SKC,0.00,VWS V14.01,2013-05-31 06:46:00,
2013-05-31 02:51:00,62.0,58.4,30.12,SE,136,0.0,0.0,88,0.00,,SKC,0.00,VWS V14.01,2013-05-31 06:51:00,
2013-05-31 02:56:00,61.8,58.5,30.12,SE,136,0.0,0.0,89,0.00,,SKC,0.00,VWS V14.01,2013-05-31 06:56:00,
2013-05-31 03:01:00,61.6,58.3,30.12,SE,136,0.0,0.0,89,0.00,,SKC,0.00,VWS V14.01,2013-05-31 07:01:00,
2013-05-31 03:06:00,61.8,58.5,30.12,SE,136,0.0,0.0,89,0.00,,SKC,0.00,VWS V14.01,2013-05-31 07:06:00,
2013-05-31 03:11:00,61.8,58.8,30.12,SE,136,2.0,3.0,90,0.00,,SKC,0.00,VWS V14.01,2013-05-31 07:11:00,
2013-05-31 03:16:00,61.6,58.6,30.11,SE,136,3.0,3.0,90,0.00,,SKC,0.00,VWS V14.01,2013-05-31 07:16:00,
2013-05-31 03:21:00,61.6,58.6,30.11,SE,143,1.0,3.0,90,0.00,,SKC,0.00,VWS V14.01,2013-05-31 07:21:00,
2013-05-31 03:26:00,62.0,58.7,30.11,SSE,153,0.0,0.0,89,0.00,,SKC,0.00,VWS V14.01,2013-05-31 07:26:00,
2013-05-31 03:31:00,62.1,58.5,30.11,SSE,153,0.0,0.0,88,0.00,,SKC,0.00,VWS V14.01,2013-05-31 07:31:00,
2013-05-31 03:36:00,62.4,58.5,30.11,SSE,153,0.0,0.0,87,0.00,,SKC,0.00,VWS V14.01,2013-05-31 07:36:00,
2013-05-31 03:41:00,62.4,58.5,30.11,SSE,153,0.0,0.0,87,0.00,,SKC,0.00,VWS V14.01,2013-05-31 07:41:00,
2013-05-31 03:46:00,62.4,58.5,30.11,SSE,153,0.0,0.0,87,0.00,,SKC,0.00,VWS V14.01,2013-05-31 07:46:00,
2013-05-31 03:51:00,62.4,58.5,30.11,SSE,153,0.0,0.0,87,0.00,,SKC,0.00,VWS V14.01,2013-05-31 07:51:00,
2013-05-31 03:56:00,62.3,58.7,30.11,SSE,153,0.0,0.0,88,0.00,,SKC,0.00,VWS V14.01,2013-05-31 07:56:00,
2013-05-31 04:01:00,62.1,58.5,30.11,SSE,153,0.0,0.0,88,0.00,,SKC,0.00,VWS V14.01,2013-05-31 08:01:00,
2013-05-31 04:06:00,61.8,58.5,30.11,SSE,153,0.0,0.0,89,0.00,,SKC,0.00,VWS V14.01,2013-05-31 08:06:00,
2013-05-31 04:11:00,61.8,58.5,30.11,SSE,153,0.0,0.0,89,0.00,,SKC,0.00,VWS V14.01,2013-05-31 08:11:00,
2013-05-31 04:16:00,62.0,58.4,30.11,SSE,153,0.0,0.0,88,0.00,,SKC,0.00,VWS V14.01,2013-05-31 08:16:00,
2013-05-31 04:21:00,62.0,58.4,30.11,SSE,153,0.0,0.0,88,0.00,,SKC,0.00,VWS V14.01,2013-05-31 08:21:00,
2013-05-31 04:26:00,62.0,58.4,30.11,SSE,153,0.0,0.0,88,0.00,,SKC,0.00,VWS V14.01,2013-05-31 08:26:00,
2013-05-31 04:31:00,61.8,58.2,30.11,SSE,153,0.0,0.0,88,0.00,,SKC,0.00,VWS V14.01,2013-05-31 08:31:00,
2013-05-31 04:36:00,61.6,58.3,30.11,SSE,153,0.0,0.0,89,0.00,,SKC,0.00,VWS V14.01,2013-05-31 08:36:00,
2013-05-31 04:41:00,61.3,58.0,30.11,SSE,153,0.0,0.0,89,0.00,,SKC,0.00,VWS V14.01,2013-05-31 08:41:00,
2013-05-31 04:46:00,61.2,58.2,30.11,SSE,153,0.0,0.0,90,0.00,,SKC,0.00,VWS V14.01,2013-05-31 08:46:00,
2013-05-31 04:51:00,61.0,58.0,30.11,SSE,153,0.0,0.0,90,0.00,,SKC,0.00,VWS V14.01,2013-05-31 08:51:00,
2013-05-31 04:56:00,61.0,58.0,30.11,SSE,153,0.0,0.0,90,0.00,,SKC,0.00,VWS V14.01,2013-05-31 08:56:00,
2013-05-31 05:01:00,61.0,58.0,30.11,SSE,153,0.0,0.0,90,0.00,,SKC,0.00,VWS V14.01,2013-05-31 09:01:00,
2013-05-31 05:06:00,61.0,58.4,30.11,SSE,153,0.0,0.0,91,0.00,,SKC,0.00,VWS V14.01,2013-05-31 09:06:00,
2013-05-31 05:11:00,61.0,58.4,30.11,SSE,153,0.0,0.0,91,0.00,,SKC,0.00,VWS V14.01,2013-05-31 09:11:00,
2013-05-31 05:16:00,61.0,58.4,30.11,SSE,153,0.0,0.0,91,0.00,,SKC,0.00,VWS V14.01,2013-05-31 09:16:00,
2013-05-31 05:21:00,61.2,58.6,30.11,SSE,153,0.0,0.0,91,0.00,,SKC,0.00,VWS V14.01,2013-05-31 09:21:00,
2013-05-31 05:26:00,61.2,58.2,30.11,SSE,153,0.0,0.0,90,0.00,,SKC,0.00,VWS V14.01,2013-05-31 09:26:00,
2013-05-31 05:31:00,61.2,58.2,30.11,SSE,153,0.0,0.0,90,0.00,,SKC,0.00,VWS V14.01,2013-05-31 09:31:00,
2013-05-31 05:36:00,61.0,58.0,30.11,SSE,153,0.0,0.0,90,0.00,,SKC,0.00,VWS V14.01,2013-05-31 09:36:00,
2013-05-31 05:41:00,61.0,58.0,30.11,SSE,153,0.0,0.0,90,0.00,,SKC,0.00,VWS V14.01,2013-05-31 09:41:00,
2013-05-31 05:46:00,61.2,58.2,30.11,SSE,153,0.0,0.0,90,0.00,,SKC,0.00,VWS V14.01,2013-05-31 09:46:00,
2013-05-31 05:51:00,61.0,58.0,30.11,SSE,153,0.0,0.0,90,0.00,,SKC,0.00,VWS V14.01,2013-05-31 09:51:00,
2013-05-31 05:56:00,60.9,58.0,30.11,SSE,153,0.0,0.0,90,0.00,,SKC,0.00,VWS V14.01,2013-05-31 09:56:00,
2013-05-31 06:01:00,60.7,58.1,30.11,SSE,153,0.0,0.0,91,0.00,,SKC,0.00,VWS V14.01,2013-05-31 10:01:00,
2013-05-31 06:06:00,60.5,57.9,30.11,SSE,153,0.0,0.0,91,0.00,,SKC,0.00,VWS V14.01,2013-05-31 10:06:00,
2013-05-31 06:11:00,60.2,57.9,30.11,SSE,153,0.0,0.0,92,0.00,,SKC,0.00,VWS V14.01,2013-05-31 10:11:00,
2013-05-31 06:16:00,60.1,57.8,30.12,SSE,153,0.0,0.0,92,0.00,,SKC,0.00,VWS V14.01,2013-05-31 10:16:00,
2013-05-31 06:21:00,60.2,58.2,30.12,SSE,153,0.0,0.0,93,0.00,,SKC,0.00,VWS V14.01,2013-05-31 10:21:00,
2013-05-31 06:26:00,60.4,58.1,30.12,SSE,153,0.0,0.0,92,0.00,,SKC,0.00,VWS V14.01,2013-05-31 10:26:00,
2013-05-31 06:31:00,60.7,58.4,30.12,SSE,153,0.0,0.0,92,0.00,,SKC,0.00,VWS V14.01,2013-05-31 10:31:00,
2013-05-31 06:36:00,60.9,58.6,30.12,SSE,153,0.0,0.0,92,0.00,,SKC,0.00,VWS V14.01,2013-05-31 10:36:00,
2013-05-31 06:41:00,61.0,58.7,30.12,SSE,153,0.0,0.0,92,0.00,,SKC,0.00,VWS V14.01,2013-05-31 10:41:00,
2013-05-31 06:46:00,61.2,58.6,30.13,SSE,153,0.0,0.0,91,0.00,,SKC,0.00,VWS V14.01,2013-05-31 10:46:00,
2013-05-31 06:51:00,61.6,58.6,30.13,SSE,153,0.0,0.0,90,0.00,,SKC,0.00,VWS V14.01,2013-05-31 10:51:00,
2013-05-31 06:56:00,62.1,59.1,30.13,SSE,153,0.0,0.0,90,0.00,,SKC,0.00,VWS V14.01,2013-05-31 10:56:00,
2013-05-31 07:01:00,62.4,59.1,30.13,SSE,153,0.0,0.0,89,0.00,,SKC,0.00,VWS V14.01,2013-05-31 11:01:00,
2013-05-31 07:05:00,62.3,59.0,30.13,SSE,153,0.0,0.0,89,0.00,,SKC,0.00,VWS V14.01,2013-05-31 11:05:00,
2013-05-31 07:10:00,62.4,59.4,30.13,SSE,153,0.0,0.0,90,0.00,,SKC,0.00,VWS V14.01,2013-05-31 11:10:00,
2013-05-31 07:15:00,62.6,59.6,30.14,SSE,153,0.0,0.0,90,0.00,,SKC,0.00,VWS V14.01,2013-05-31 11:15:00,
2013-05-31 07:20:00,62.9,59.9,30.14,SSE,153,0.0,0.0,90,0.00,,SKC,0.00,VWS V14.01,2013-05-31 11:20:00,
2013-05-31 07:25:00,62.9,59.6,30.14,SSE,153,0.0,0.0,89,0.00,,SKC,0.00,VWS V14.01,2013-05-31 11:25:00,
2013-05-31 07:30:00,63.1,59.5,30.14,SSE,153,0.0,0.0,88,0.00,,SKC,0.00,VWS V14.01,2013-05-31 11:30:00,
2013-05-31 07:35:00,63.5,59.6,30.14,SSE,153,0.0,0.0,87,0.00,,SKC,0.00,VWS V14.01,2013-05-31 11:35:00,
2013-05-31 07:40:00,64.0,59.7,30.14,SSE,153,0.0,0.0,86,0.00,,SKC,0.00,VWS V14.01,2013-05-31 11:40:00,
2013-05-31 07:45:00,65.0,60.4,30.14,SSE,153,0.0,0.0,85,0.00,,SKC,0.00,VWS V14.01,2013-05-31 11:45:00,
2013-05-31 07:50:00,66.0,60.3,30.14,SSE,153,0.0,0.0,82,0.00,,SKC,0.00,VWS V14.01,2013-05-31 11:50:00,
2013-05-31 07:55:00,66.8,61.1,30.14,SSE,153,0.0,0.0,82,0.00,,SKC,0.00,VWS V14.01,2013-05-31 11:55:00,
2013-05-31 08:00:00,66.6,60.6,30.14,SSE,153,0.0,0.0,81,0.00,,SKC,0.00,VWS V14.01,2013-05-31 12:00:00,
2013-05-31 08:05:00,66.6,60.2,30.14,SSE,153,0.0,0.0,80,0.00,,SKC,0.00,VWS V14.01,2013-05-31 12:05:00,
2013-05-31 08:10:00,67.1,61.1,30.14,SSE,153,0.0,0.0,81,0.00,,SKC,0.00,VWS V14.01,2013-05-31 12:10:00,
2013-05-31 08:15:00,67.3,61.3,30.14,SSE,153,0.0,0.0,81,0.00,,SKC,0.00,VWS V14.01,2013-05-31 12:15:00,
2013-05-31 08:20:00,67.8,61.4,30.14,SSE,153,0.0,0.0,80,0.00,,SKC,0.00,VWS V14.01,2013-05-31 12:20:00,
2013-05-31 08:25:00,68.1,61.0,30.14,SSE,153,0.0,0.0,78,0.00,,SKC,0.00,VWS V14.01,2013-05-31 12:25:00,
2013-05-31 08:30:00,68.9,62.1,30.14,SSE,153,0.0,0.0,79,0.00,,SKC,0.00,VWS V14.01,2013-05-31 12:30:00,
2013-05-31 08:35:00,69.4,61.9,30.14,SSE,153,0.0,0.0,77,0.00,,SKC,0.00,VWS V14.01,2013-05-31 12:35:00,
2013-05-31 08:40:00,70.6,62.7,30.14,SSE,153,0.0,0.0,76,0.00,,SKC,0.00,VWS V14.01,2013-05-31 12:40:00,
2013-05-31 08:45:00,70.9,62.2,30.13,SSE,153,0.0,0.0,74,0.00,,SKC,0.00,VWS V14.01,2013-05-31 12:45:00,
2013-05-31 08:50:00,71.8,62.7,30.13,SSE,153,0.0,0.0,73,0.00,,SKC,0.00,VWS V14.01,2013-05-31 12:50:00,
2013-05-31 08:55:00,72.0,62.9,30.13,SSE,153,0.0,0.0,73,0.00,,SKC,0.00,VWS V14.01,2013-05-31 12:55:00,
2013-05-31 09:00:00,72.3,62.8,30.14,SSE,151,0.0,4.0,72,0.00,,SKC,0.00,VWS V14.01,2013-05-31 13:00:00,
2013-05-31 09:05:00,72.7,63.5,30.14,SSE,151,0.0,1.0,73,0.00,,SKC,0.00,VWS V14.01,2013-05-31 13:05:00,
2013-05-31 09:10:00,73.0,63.8,30.14,SSE,151,0.0,0.0,73,0.00,,SKC,0.00,VWS V14.01,2013-05-31 13:10:00,
2013-05-31 09:15:00,73.5,64.3,30.13,SSE,151,0.0,1.0,73,0.00,,SKC,0.00,VWS V14.01,2013-05-31 13:15:00,
2013-05-31 09:20:00,73.9,64.3,30.13,SSE,151,0.0,1.0,72,0.00,,SKC,0.00,VWS V14.01,2013-05-31 13:20:00,
2013-05-31 09:25:00,74.2,64.6,30.13,SSE,150,0.0,1.0,72,0.00,,SKC,0.00,VWS V14.01,2013-05-31 13:25:00,
2013-05-31 09:30:00,74.4,64.0,30.13,SSE,148,0.0,1.0,70,0.00,,SKC,0.00,VWS V14.01,2013-05-31 13:30:00,
2013-05-31 09:35:00,74.7,64.3,30.13,SSE,148,0.0,1.0,70,0.00,,SKC,0.00,VWS V14.01,2013-05-31 13:35:00,
2013-05-31 09:40:00,74.9,64.5,30.13,SSE,149,0.0,0.0,70,0.00,,SKC,0.00,VWS V14.01,2013-05-31 13:40:00,
2013-05-31 09:45:00,75.4,64.9,30.12,SSE,148,0.0,3.0,70,0.00,,SKC,0.00,VWS V14.01,2013-05-31 13:45:00,
2013-05-31 09:50:00,76.0,64.7,30.12,SSE,148,1.0,1.0,68,0.00,,SKC,0.00,VWS V14.01,2013-05-31 13:50:00,
2013-05-31 09:55:00,75.8,64.9,30.12,SE,143,0.0,2.0,69,0.00,,SKC,0.00,VWS V14.01,2013-05-31 13:55:00,
2013-05-31 10:00:00,76.1,64.8,30.12,SSE,159,0.0,2.0,68,0.00,,SKC,0.00,VWS V14.01,2013-05-31 14:00:00,
2013-05-31 10:05:00,76.0,64.3,30.12,SSE,161,0.0,1.0,67,0.00,,SKC,0.00,VWS V14.01,2013-05-31 14:05:00,
2013-05-31 10:10:00,76.0,64.7,30.12,SSE,158,1.0,3.0,68,0.00,,SKC,0.00,VWS V14.01,2013-05-31 14:10:00,
2013-05-31 10:15:00,76.5,64.7,30.12,SSE,156,1.0,1.0,67,0.00,,SKC,0.00,VWS V14.01,2013-05-31 14:15:00,
2013-05-31 10:20:00,77.2,65.0,30.12,SE,144,2.0,3.0,66,0.00,,SKC,0.00,VWS V14.01,2013-05-31 14:20:00,
2013-05-31 10:25:00,77.4,65.2,30.12,SE,143,0.0,1.0,66,0.00,,SKC,0.00,VWS V14.01,2013-05-31 14:25:00,
2013-05-31 10:30:00,77.7,64.1,30.12,SE,143,0.0,3.0,63,0.00,,SKC,0.00,VWS V14.01,2013-05-31 14:30:00,
2013-05-31 10:35:00,77.9,63.4,30.12,SE,139,1.0,3.0,61,0.00,,SKC,0.00,VWS V14.01,2013-05-31 14:35:00,
2013-05-31 10:40:00,77.6,63.6,30.12,SSE,168,0.0,3.0,62,0.00,,SKC,0.00,VWS V14.01,2013-05-31 14:40:00,
2013-05-31 10:45:00,77.9,62.9,30.12,SSE,148,0.0,5.0,60,0.00,,SKC,0.00,VWS V14.01,2013-05-31 14:45:00,
2013-05-31 10:50:00,77.7,62.2,30.12,SE,141,0.0,3.0,59,0.00,,SKC,0.00,VWS V14.01,2013-05-31 14:50:00,
2013-05-31 10:55:00,78.1,63.6,30.12,SSE,151,0.0,4.0,61,0.00,,SKC,0.00,VWS V14.01,2013-05-31 14:55:00,
2013-05-31 11:00:00,78.5,63.0,30.12,SSE,151,0.0,1.0,59,0.00,,SKC,0.00,VWS V14.01,2013-05-31 15:00:00,
2013-05-31 11:05:00,78.5,63.0,30.12,SSE,147,0.0,3.0,59,0.00,,SKC,0.00,VWS V14.01,2013-05-31 15:05:00,
2013-05-31 11:10:00,78.8,62.8,30.12,SE,126,5.0,6.0,58,0.00,,SKC,0.00,VWS V14.01,2013-05-31 15:10:00,
2013-05-31 11:15:00,78.8,62.8,30.12,SE,131,0.0,7.0,58,0.00,,SKC,0.00,VWS V14.01,2013-05-31 15:15:00,
2013-05-31 11:20:00,78.5,62.5,30.12,SE,129,2.0,6.0,58,0.00,,SKC,0.00,VWS V14.01,2013-05-31 15:20:00,
2013-05-31 11:25:00,79.0,63.0,30.12,SE,129,0.0,5.0,58,0.00,,SKC,0.00,VWS V14.01,2013-05-31 15:25:00,
2013-05-31 11:30:00,79.0,61.5,30.13,ESE,123,5.0,6.0,55,0.00,,SKC,0.00,VWS V14.01,2013-05-31 15:30:00,
2013-05-31 11:35:00,78.8,62.8,30.13,SE,125,2.0,6.0,58,0.00,,SKC,0.00,VWS V14.01,2013-05-31 15:35:00,
2013-05-31 11:40:00,79.2,61.7,30.13,SE,129,2.0,6.0,55,0.00,,SKC,0.00,VWS V14.01,2013-05-31 15:40:00,
2013-05-31 11:45:00,79.4,61.8,30.12,SE,128,0.0,6.0,55,0.00,,SKC,0.00,VWS V14.01,2013-05-31 15:45:00,
2013-05-31 11:50:00,79.9,63.3,30.12,SE,129,3.0,5.0,57,0.00,,SKC,0.00,VWS V14.01,2013-05-31 15:50:00,
2013-05-31 11:55:00,79.6,62.5,30.12,West,265,0.0,7.0,56,0.00,,SKC,0.00,VWS V14.01,2013-05-31 15:55:00,
2013-05-31 12:00:00,79.4,62.3,30.12,ESE,115,3.0,7.0,56,0.00,,SKC,0.00,VWS V14.01,2013-05-31 16:00:00,
2013-05-31 12:05:00,79.6,63.5,30.12,ESE,117,0.0,5.0,58,0.00,,SKC,0.00,VWS V14.01,2013-05-31 16:05:00,
2013-05-31 12:10:00,79.8,63.7,30.12,ESE,120,0.0,5.0,58,0.00,,SKC,0.00,VWS V14.01,2013-05-31 16:10:00,
2013-05-31 12:15:00,79.6,64.5,30.12,SSW,200,0.0,7.0,60,0.00,,SKC,0.00,VWS V14.01,2013-05-31 16:15:00,
2013-05-31 12:20:00,79.0,63.5,30.12,South,174,0.0,3.0,59,0.00,,SKC,0.00,VWS V14.01,2013-05-31 16:20:00,
2013-05-31 12:25:00,79.6,63.5,30.12,SSE,147,4.0,4.0,58,0.00,,SKC,0.00,VWS V14.01,2013-05-31 16:25:00,
2013-05-31 12:30:00,79.6,63.5,30.12,SSE,155,0.0,3.0,58,0.00,,SKC,0.00,VWS V14.01,2013-05-31 16:30:00,
2013-05-31 12:35:00,79.6,64.0,30.12,SSE,147,2.0,3.0,59,0.00,,SKC,0.00,VWS V14.01,2013-05-31 16:35:00,
2013-05-31 12:40:00,78.5,62.0,30.12,SE,143,1.0,5.0,57,0.00,,SKC,0.00,VWS V14.01,2013-05-31 16:40:00,
2013-05-31 12:45:00,77.0,62.5,30.13,SE,141,0.0,5.0,61,0.00,,SKC,0.00,VWS V14.01,2013-05-31 16:45:00,
2013-05-31 12:50:00,77.2,61.8,30.13,SE,132,3.0,6.0,59,0.00,,SKC,0.00,VWS V14.01,2013-05-31 16:50:00,
2013-05-31 12:55:00,77.4,61.5,30.13,SE,133,0.0,4.0,58,0.00,,SKC,0.00,VWS V14.01,2013-05-31 16:55:00,
2013-05-31 13:00:00,77.7,63.2,30.12,SE,133,0.0,5.0,61,0.00,,SKC,0.00,VWS V14.01,2013-05-31 17:00:00,
2013-05-31 13:05:00,78.1,62.1,30.12,ESE,114,0.0,4.0,58,0.00,,SKC,0.00,VWS V14.01,2013-05-31 17:05:00,
2013-05-31 13:10:00,77.9,62.0,30.12,ESE,114,0.0,4.0,58,0.00,,SKC,0.00,VWS V14.01,2013-05-31 17:10:00,
2013-05-31 13:15:00,77.9,62.4,30.11,SSE,162,0.0,3.0,59,0.00,,SKC,0.00,VWS V14.01,2013-05-31 17:15:00,
2013-05-31 13:20:00,78.3,63.3,30.11,SSE,158,0.0,3.0,60,0.00,,SKC,0.00,VWS V14.01,2013-05-31 17:20:00,
2013-05-31 13:25:00,79.4,62.9,30.11,SE,130,0.0,6.0,57,0.00,,SKC,0.00,VWS V14.01,2013-05-31 17:25:00,
2013-05-31 13:30:00,79.6,63.5,30.11,SE,143,3.0,8.0,58,0.00,,SKC,0.00,VWS V14.01,2013-05-31 17:30:00,
2013-05-31 13:35:00,80.3,62.7,30.11,SSW,206,4.0,6.0,55,0.00,,SKC,0.00,VWS V14.01,2013-05-31 17:35:00,
2013-05-31 13:40:00,80.9,62.7,30.11,SSE,158,0.0,7.0,54,0.00,,SKC,0.00,VWS V14.01,2013-05-31 17:40:00,
2013-05-31 13:45:00,81.1,63.4,30.10,SSW,207,0.0,3.0,55,0.00,,SKC,0.00,VWS V14.01,2013-05-31 17:45:00,
2013-05-31 13:50:00,81.2,60.2,30.10,ESE,121,7.0,7.0,49,0.00,,SKC,0.00,VWS V14.01,2013-05-31 17:50:00,
2013-05-31 13:55:00,79.8,62.7,30.10,ESE,121,1.0,4.0,56,0.00,,SKC,0.00,VWS V14.01,2013-05-31 17:55:00,
2013-05-31 14:00:00,79.6,64.0,30.10,SE,127,0.0,4.0,59,0.00,,SKC,0.00,VWS V14.01,2013-05-31 18:00:00,
2013-05-31 14:05:00,81.1,62.9,30.10,SE,144,0.0,3.0,54,0.00,,SKC,0.00,VWS V14.01,2013-05-31 18:05:00,
2013-05-31 14:10:00,80.3,61.6,30.10,SE,136,2.0,4.0,53,0.00,,SKC,0.00,VWS V14.01,2013-05-31 18:10:00,
2013-05-31 14:15:00,79.2,61.1,30.09,SE,137,0.0,1.0,54,0.00,,SKC,0.00,VWS V14.01,2013-05-31 18:15:00,
2013-05-31 14:20:00,79.8,61.7,30.09,SE,141,4.0,4.0,54,0.00,,SKC,0.00,VWS V14.01,2013-05-31 18:20:00,
2013-05-31 14:25:00,80.3,62.7,30.09,SE,125,0.0,3.0,55,0.00,,SKC,0.00,VWS V14.01,2013-05-31 18:25:00,
2013-05-31 14:30:00,80.7,60.9,30.09,WNW,288,4.0,7.0,51,0.00,,SKC,0.00,VWS V14.01,2013-05-31 18:30:00,
2013-05-31 14:35:00,81.1,62.9,30.09,NNW,344,2.0,4.0,54,0.00,,SKC,0.00,VWS V14.01,2013-05-31 18:35:00,
2013-05-31 14:40:00,81.2,62.5,30.09,ESE,119,0.0,4.0,53,0.00,,SKC,0.00,VWS V14.01,2013-05-31 18:40:00,
2013-05-31 14:45:00,81.8,64.1,30.07,SE,126,1.0,4.0,55,0.00,,SKC,0.00,VWS V14.01,2013-05-31 18:45:00,
2013-05-31 14:50:00,82.0,61.5,30.07,SE,126,0.0,3.0,50,0.00,,SKC,0.00,VWS V14.01,2013-05-31 18:50:00,
2013-05-31 14:55:00,82.0,62.1,30.07,WSW,240,0.0,5.0,51,0.00,,SKC,0.00,VWS V14.01,2013-05-31 18:55:00,
2013-05-31 15:00:00,82.4,60.8,30.07,WSW,257,0.0,3.0,48,0.00,,SKC,0.00,VWS V14.01,2013-05-31 19:00:00,
2013-05-31 15:05:00,82.6,63.8,30.07,West,266,0.0,2.0,53,0.00,,SKC,0.00,VWS V14.01,2013-05-31 19:05:00,
2013-05-31 15:10:00,82.6,63.8,30.07,SE,125,5.0,6.0,53,0.00,,SKC,0.00,VWS V14.01,2013-05-31 19:10:00,
2013-05-31 15:15:00,82.2,61.7,30.07,SE,127,0.0,4.0,50,0.00,,SKC,0.00,VWS V14.01,2013-05-31 19:15:00,
2013-05-31 15:20:00,81.8,62.5,30.07,SW,214,0.0,3.0,52,0.00,,SKC,0.00,VWS V14.01,2013-05-31 19:20:00,
2013-05-31 15:25:00,81.8,61.9,30.07,SE,132,0.0,4.0,51,0.00,,SKC,0.00,VWS V14.01,2013-05-31 19:25:00,
2013-05-31 15:30:00,81.1,61.3,30.06,SE,131,0.0,6.0,51,0.00,,SKC,0.00,VWS V14.01,2013-05-31 19:30:00,
2013-05-31 15:35:00,80.7,61.5,30.06,SE,131,0.0,4.0,52,0.00,,SKC,0.00,VWS V14.01,2013-05-31 19:35:00,
2013-05-31 15:40:00,80.7,60.3,30.06,SSW,193,2.0,7.0,50,0.00,,SKC,0.00,VWS V14.01,2013-05-31 19:40:00,
2013-05-31 15:45:00,81.1,61.8,30.06,SE,135,2.0,4.0,52,0.00,,SKC,0.00,VWS V14.01,2013-05-31 19:45:00,
2013-05-31 15:50:00,81.2,61.4,30.06,SE,133,5.0,6.0,51,0.00,,SKC,0.00,VWS V14.01,2013-05-31 19:50:00,
2013-05-31 15:55:00,81.4,61.0,30.06,SE,127,4.0,5.0,50,0.00,,SKC,0.00,VWS V14.01,2013-05-31 19:55:00,
2013-05-31 16:00:00,81.6,62.8,30.05,SSE,148,0.0,5.0,53,0.00,,SKC,0.00,VWS V14.01,2013-05-31 20:00:00,
2013-05-31 16:05:00,81.2,61.9,30.05,SE,140,0.0,7.0,52,0.00,,SKC,0.00,VWS V14.01,2013-05-31 20:05:00,
2013-05-31 16:10:00,80.9,62.7,30.05,SE,136,2.0,2.0,54,0.00,,SKC,0.00,VWS V14.01,2013-05-31 20:10:00,
2013-05-31 16:15:00,80.7,61.5,30.05,SE,135,3.0,6.0,52,0.00,,SKC,0.00,VWS V14.01,2013-05-31 20:15:00,
2013-05-31 16:20:00,80.1,60.9,30.05,SE,127,0.0,5.0,52,0.00,,SKC,0.00,VWS V14.01,2013-05-31 20:20:00,
2013-05-31 16:25:00,79.4,61.3,30.05,SE,131,1.0,6.0,54,0.00,,SKC,0.00,VWS V14.01,2013-05-31 20:25:00,
2013-05-31 16:30:00,80.1,62.0,30.05,SE,132,0.0,5.0,54,0.00,,SKC,0.00,VWS V14.01,2013-05-31 20:30:00,
2013-05-31 16:35:00,80.5,62.9,30.05,SE,134,4.0,5.0,55,0.00,,SKC,0.00,VWS V14.01,2013-05-31 20:35:00,
2013-05-31 16:40:00,80.9,64.2,30.05,SE,140,0.0,3.0,57,0.00,,SKC,0.00,VWS V14.01,2013-05-31 20:40:00,
2013-05-31 16:45:00,80.7,62.5,30.04,SE,131,3.0,5.0,54,0.00,,SKC,0.00,VWS V14.01,2013-05-31 20:45:00,
2013-05-31 16:50:00,80.7,62.0,30.04,SE,131,1.0,4.0,53,0.00,,SKC,0.00,VWS V14.01,2013-05-31 20:50:00,
2013-05-31 16:55:00,80.7,62.0,30.04,SE,131,1.0,5.0,53,0.00,,SKC,0.00,VWS V14.01,2013-05-31 20:55:00,
2013-05-31 17:00:00,80.9,61.6,30.04,SE,129,7.0,7.0,52,0.00,,SKC,0.00,VWS V14.01,2013-05-31 21:00:00,
2013-05-31 17:05:00,80.9,61.6,30.04,ESE,122,1.0,6.0,52,0.00,,SKC,0.00,VWS V14.01,2013-05-31 21:05:00,
2013-05-31 17:10:00,80.9,62.2,30.04,SW,216,3.0,4.0,53,0.00,,SKC,0.00,VWS V14.01,2013-05-31 21:10:00,
2013-05-31 17:15:00,80.9,61.6,30.04,SSW,211,0.0,3.0,52,0.00,,SKC,0.00,VWS V14.01,2013-05-31 21:15:00,
2013-05-31 17:20:00,80.5,61.3,30.04,SSW,193,0.0,3.0,52,0.00,,SKC,0.00,VWS V14.01,2013-05-31 21:20:00,
2013-05-31 17:25:00,80.7,61.5,30.04,WSW,251,0.0,10.0,52,0.00,,SKC,0.00,VWS V14.01,2013-05-31 21:25:00,
2013-05-31 17:30:00,80.5,61.3,30.04,SE,142,1.0,4.0,52,0.00,,SKC,0.00,VWS V14.01,2013-05-31 21:30:00,
2013-05-31 17:35:00,79.8,62.2,30.04,SE,134,1.0,4.0,55,0.00,,SKC,0.00,VWS V14.01,2013-05-31 21:35:00,
2013-05-31 17:40:00,79.4,61.8,30.04,SE,141,0.0,3.0,55,0.00,,SKC,0.00,VWS V14.01,2013-05-31 21:40:00,
2013-05-31 17:45:00,79.2,61.7,30.04,SE,146,0.0,5.0,55,0.00,,SKC,0.00,VWS V14.01,2013-05-31 21:45:00,
2013-05-31 17:50:00,79.2,61.7,30.04,ESE,120,0.0,5.0,55,0.00,,SKC,0.00,VWS V14.01,2013-05-31 21:50:00,
2013-05-31 17:55:00,79.2,61.7,30.04,ESE,122,1.0,3.0,55,0.00,,SKC,0.00,VWS V14.01,2013-05-31 21:55:00,
2013-05-31 18:00:00,79.2,61.1,30.03,ESE,116,0.0,4.0,54,0.00,,SKC,0.00,VWS V14.01,2013-05-31 22:00:00,
2013-05-31 18:05:00,79.2,60.1,30.03,West,266,1.0,5.0,52,0.00,,SKC,0.00,VWS V14.01,2013-05-31 22:05:00,
2013-05-31 18:10:00,79.2,61.1,30.03,WSW,251,0.0,4.0,54,0.00,,SKC,0.00,VWS V14.01,2013-05-31 22:10:00,
2013-05-31 18:15:00,79.4,61.8,30.04,WSW,251,0.0,1.0,55,0.00,,SKC,0.00,VWS V14.01,2013-05-31 22:15:00,
2013-05-31 18:20:00,79.2,61.7,30.04,WSW,245,0.0,2.0,55,0.00,,SKC,0.00,VWS V14.01,2013-05-31 22:20:00,
2013-05-31 18:25:00,79.0,61.5,30.04,WSW,255,0.0,1.0,55,0.00,,SKC,0.00,VWS V14.01,2013-05-31 22:25:00,
2013-05-31 18:30:00,78.8,61.8,30.03,West,259,0.0,1.0,56,0.00,,SKC,0.00,VWS V14.01,2013-05-31 22:30:00,
2013-05-31 18:35:00,78.3,62.3,30.03,West,259,0.0,0.0,58,0.00,,SKC,0.00,VWS V14.01,2013-05-31 22:35:00,
2013-05-31 18:40:00,77.9,61.0,30.03,SSE,152,0.0,5.0,56,0.00,,SKC,0.00,VWS V14.01,2013-05-31 22:40:00,
2013-05-31 18:45:00,77.9,61.0,30.03,SE,137,0.0,4.0,56,0.00,,SKC,0.00,VWS V14.01,2013-05-31 22:45:00,
2013-05-31 18:50:00,77.9,61.0,30.03,SE,137,0.0,3.0,56,0.00,,SKC,0.00,VWS V14.01,2013-05-31 22:50:00,
2013-05-31 18:55:00,77.7,60.8,30.03,SE,139,0.0,5.0,56,0.00,,SKC,0.00,VWS V14.01,2013-05-31 22:55:00,
2013-05-31 19:00:00,77.6,62.2,30.04,SE,137,0.0,4.0,59,0.00,,SKC,0.00,VWS V14.01,2013-05-31 23:00:00,
2013-05-31 19:05:00,77.6,61.7,30.04,SE,137,0.0,0.0,58,0.00,,SKC,0.00,VWS V14.01,2013-05-31 23:05:00,
2013-05-31 19:10:00,77.6,61.7,30.04,SE,138,0.0,1.0,58,0.00,,SKC,0.00,VWS V14.01,2013-05-31 23:10:00,
2013-05-31 19:15:00,77.4,62.0,30.04,SE,138,0.0,0.0,59,0.00,,SKC,0.00,VWS V14.01,2013-05-31 23:15:00,
2013-05-31 19:20:00,77.4,62.0,30.04,SE,138,0.0,0.0,59,0.00,,SKC,0.00,VWS V14.01,2013-05-31 23:20:00,
2013-05-31 19:25:00,77.2,61.8,30.04,SE,138,0.0,1.0,59,0.00,,SKC,0.00,VWS V14.01,2013-05-31 23:25:00,
2013-05-31 19:30:00,76.8,61.4,30.04,SE,138,0.0,1.0,59,0.00,,SKC,0.00,VWS V14.01,2013-05-31 23:30:00,
2013-05-31 19:35:00,76.7,61.8,30.04,SE,138,0.0,0.0,60,0.00,,SKC,0.00,VWS V14.01,2013-05-31 23:35:00,
2013-05-31 19:40:00,76.3,61.4,30.04,SE,138,0.0,0.0,60,0.00,,SKC,0.00,VWS V14.01,2013-05-31 23:40:00,
2013-05-31 19:45:00,76.1,61.7,30.04,SE,138,0.0,0.0,61,0.00,,SKC,0.00,VWS V14.01,2013-05-31 23:45:00,
2013-05-31 19:50:00,75.8,61.9,30.04,SE,138,0.0,0.0,62,0.00,,SKC,0.00,VWS V14.01,2013-05-31 23:50:00,
2013-05-31 19:55:00,75.4,61.5,30.04,SE,138,0.0,0.0,62,0.00,,SKC,0.00,VWS V14.01,2013-05-31 23:55:00,
2013-05-31 20:00:00,75.3,62.3,30.03,SE,138,0.0,0.0,64,0.00,,SKC,0.00,VWS V14.01,2013-06-01 00:00:00,
2013-05-31 20:05:00,74.9,61.9,30.03,SE,138,0.0,0.0,64,0.00,,SKC,0.00,VWS V14.01,2013-06-01 00:05:00,
2013-05-31 20:10:00,74.6,61.2,30.03,SE,138,1.0,1.0,63,0.00,,SKC,0.00,VWS V14.01,2013-06-01 00:10:00,
2013-05-31 20:15:00,74.2,61.7,30.03,SE,138,0.0,0.0,65,0.00,,SKC,0.00,VWS V14.01,2013-06-01 00:15:00,
2013-05-31 20:20:00,73.9,61.4,30.03,SE,138,0.0,3.0,65,0.00,,SKC,0.00,VWS V14.01,2013-06-01 00:20:00,
2013-05-31 20:25:00,73.3,60.4,30.03,SE,138,0.0,1.0,64,0.00,,SKC,0.00,VWS V14.01,2013-06-01 00:25:00,
2013-05-31 20:30:00,73.3,60.0,30.03,SE,138,0.0,1.0,63,0.00,,SKC,0.00,VWS V14.01,2013-06-01 00:30:00,
2013-05-31 20:35:00,73.3,60.4,30.03,SE,138,0.0,0.0,64,0.00,,SKC,0.00,VWS V14.01,2013-06-01 00:35:00,
2013-05-31 20:40:00,73.0,60.5,30.03,SE,138,0.0,0.0,65,0.00,,SKC,0.00,VWS V14.01,2013-06-01 00:40:00,
2013-05-31 20:45:00,72.7,61.1,30.03,SE,138,0.0,0.0,67,0.00,,SKC,0.00,VWS V14.01,2013-06-01 00:45:00,
2013-05-31 20:50:00,72.1,61.0,30.03,SE,138,0.0,0.0,68,0.00,,SKC,0.00,VWS V14.01,2013-06-01 00:50:00,
2013-05-31 20:55:00,71.8,60.7,30.03,SE,138,0.0,0.0,68,0.00,,SKC,0.00,VWS V14.01,2013-06-01 00:55:00,
2013-05-31 21:00:00,71.3,60.6,30.03,SE,138,0.0,0.0,69,0.00,,SKC,0.00,VWS V14.01,2013-06-01 01:00:00,
2013-05-31 21:05:00,70.9,60.6,30.03,SE,138,0.0,0.0,70,0.00,,SKC,0.00,VWS V14.01,2013-06-01 01:05:00,
2013-05-31 21:10:00,70.3,60.9,30.03,SE,138,3.0,4.0,72,0.00,,SKC,0.00,VWS V14.01,2013-06-01 01:10:00,
2013-05-31 21:15:00,69.6,61.0,30.02,WSW,255,4.0,6.0,74,0.00,,SKC,0.00,VWS V14.01,2013-06-01 01:15:00,
2013-05-31 21:20:00,69.4,60.4,30.02,West,274,2.0,4.0,73,0.00,,SKC,0.00,VWS V14.01,2013-06-01 01:20:00,
2013-05-31 21:25:00,69.3,60.7,30.02,West,280,0.0,5.0,74,0.00,,SKC,0.00,VWS V14.01,2013-06-01 01:25:00,
2013-05-31 21:30:00,69.1,60.5,30.03,West,280,0.0,3.0,74,0.00,,SKC,0.00,VWS V14.01,2013-06-01 01:30:00,
2013-05-31 21:35:00,68.9,60.7,30.03,West,280,1.0,3.0,75,0.00,,SKC,0.00,VWS V14.01,2013-06-01 01:35:00,
2013-05-31 21:40:00,68.8,60.6,30.03,West,280,0.0,0.0,75,0.00,,SKC,0.00,VWS V14.01,2013-06-01 01:40:00,
2013-05-31 21:45:00,68.4,60.5,30.04,West,280,0.0,4.0,76,0.00,,SKC,0.00,VWS V14.01,2013-06-01 01:45:00,
2013-05-31 21:50:00,68.1,60.6,30.04,West,280,0.0,1.0,77,0.00,,SKC,0.00,VWS V14.01,2013-06-01 01:50:00,
2013-05-31 21:55:00,68.1,60.3,30.04,West,280,0.0,1.0,76,0.00,,SKC,0.00,VWS V14.01,2013-06-01 01:55:00,
2013-05-31 22:00:00,68.4,60.2,30.04,West,280,0.0,0.0,75,0.00,,SKC,0.00,VWS V14.01,2013-06-01 02:00:00,
2013-05-31 22:05:00,68.8,60.2,30.04,West,280,0.0,0.0,74,0.00,,SKC,0.00,VWS V14.01,2013-06-01 02:05:00,
2013-05-31 22:10:00,68.8,60.6,30.04,West,280,0.0,1.0,75,0.00,,SKC,0.00,VWS V14.01,2013-06-01 02:10:00,
2013-05-31 22:15:00,68.6,60.4,30.03,West,280,0.0,0.0,75,0.00,,SKC,0.00,VWS V14.01,2013-06-01 02:15:00,
2013-05-31 22:20:00,68.3,60.5,30.03,West,280,0.0,0.0,76,0.00,,SKC,0.00,VWS V14.01,2013-06-01 02:20:00,
2013-05-31 22:25:00,67.8,60.7,30.03,West,280,0.0,1.0,78,0.00,,SKC,0.00,VWS V14.01,2013-06-01 02:25:00,
2013-05-31 22:30:00,67.4,60.3,30.04,West,280,0.0,0.0,78,0.00,,SKC,0.00,VWS V14.01,2013-06-01 02:30:00,
2013-05-31 22:35:00,67.3,60.6,30.04,West,280,0.0,1.0,79,0.00,,SKC,0.00,VWS V14.01,2013-06-01 02:35:00,
2013-05-31 22:40:00,67.3,60.2,30.04,West,280,0.0,0.0,78,0.00,,SKC,0.00,VWS V14.01,2013-06-01 02:40:00,
2013-05-31 22:45:00,67.3,60.2,30.04,West,280,0.0,0.0,78,0.00,,SKC,0.00,VWS V14.01,2013-06-01 02:45:00,
2013-05-31 22:50:00,67.3,60.2,30.04,West,280,0.0,0.0,78,0.00,,SKC,0.00,VWS V14.01,2013-06-01 02:50:00,
2013-05-31 22:55:00,67.3,60.2,30.04,West,280,1.0,3.0,78,0.00,,SKC,0.00,VWS V14.01,2013-06-01 02:55:00,
2013-05-31 23:00:00,67.3,60.2,30.04,West,280,0.0,0.0,78,0.00,,SKC,0.00,VWS V14.01,2013-06-01 03:00:00,
2013-05-31 23:05:00,67.3,60.2,30.04,West,280,0.0,0.0,78,0.00,,SKC,0.00,VWS V14.01,2013-06-01 03:05:00,
2013-05-31 23:10:00,67.3,60.2,30.04,West,280,0.0,1.0,78,0.00,,SKC,0.00,VWS V14.01,2013-06-01 03:10:00,
2013-05-31 23:15:00,67.4,60.0,30.03,West,280,0.0,0.0,77,0.00,,SKC,0.00,VWS V14.01,2013-06-01 03:15:00,
2013-05-31 23:20:00,67.4,60.3,30.03,West,280,0.0,0.0,78,0.00,,SKC,0.00,VWS V14.01,2013-06-01 03:20:00,
2013-05-31 23:25:00,67.4,60.3,30.03,West,280,0.0,0.0,78,0.00,,SKC,0.00,VWS V14.01,2013-06-01 03:25:00,
2013-05-31 23:30:00,67.3,60.6,30.03,West,280,0.0,0.0,79,0.00,,SKC,0.00,VWS V14.01,2013-06-01 03:30:00,
2013-05-31 23:35:00,66.9,60.2,30.03,West,280,0.0,0.0,79,0.00,,SKC,0.00,VWS V14.01,2013-06-01 03:35:00,
2013-05-31 23:40:00,66.4,60.0,30.03,West,280,0.0,0.0,80,0.00,,SKC,0.00,VWS V14.01,2013-06-01 03:40:00,
2013-05-31 23:45:00,66.1,60.1,30.04,West,280,0.0,0.0,81,0.00,,SKC,0.00,VWS V14.01,2013-06-01 03:45:00,
2013-05-31 23:50:00,66.0,60.3,30.04,West,280,0.0,0.0,82,0.00,,SKC,0.00,VWS V14.01,2013-06-01 03:50:00,
2013-05-31 23:55:00,65.8,60.2,30.04,West,280,0.0,0.0,82,0.00,,SKC,0.00,VWS V14.01,2013-06-01 03:55:00,